DW1490 Weather Reports


time (UTC)temp
C
wind
direction
speed
KPH
gust
KPH
rain 1hr
cm
rain 24hr
cm
rain mn
cm
humidity
%
barometer
mb
20260505200032 15 326 11.3 24.1 0.00 0.00 0.00 51 1012.8
20260505195024 15 273 11.3 29.0 0.00 0.00 0.00 53 1012.9
20260505194032 15 214 8.0 20.9 0.00 0.00 0.00 51 1013.0
20260505193024 15 190 11.3 29.0 0.00 0.00 0.00 52 1013.1
20260505192031 14 194 9.7 29.0 0.00 0.00 0.00 58 1013.2
20260505191044 13 194 14.5 32.2 0.00 0.00 0.00 62 1013.2
20260505190033 13 179 20.9 37.0 0.00 0.00 0.00 68 1013.2
20260505185024 13 195 20.9 37.0 0.00 0.00 0.00 69 1013.4
20260505184033 15 191 24.1 45.1 0.00 0.00 0.00 50 1013.2
20260505183023 16 214 14.5 40.2 0.00 0.00 0.00 46 1013.1
20260505182032 16 187 9.7 24.1 0.00 0.00 0.00 45 1013.0
20260505181025 16 197 16.1 32.2 0.00 0.00 0.00 42 1013.0
20260505180032 16 194 9.7 29.0 0.00 0.00 0.00 41 1012.9
20260505175105 17 177 4.8 29.0 0.00 0.00 0.00 39 1012.9
20260505174032 16 174 8.0 20.9 0.00 0.00 0.00 41 1012.9
20260505173025 17 131 1.6 8.0 0.00 0.00 0.00 39 1012.9
20260505172033 15 182 4.8 12.9 0.00 0.00 0.00 43 1013.0
20260505171024 15 305 9.7 24.1 0.00 0.00 0.00 44 1013.1
20260505170033 15 250 8.0 20.9 0.00 0.00 0.00 43 1013.4
20260505165100 14 243 3.2 12.9 0.00 0.00 0.00 45 1013.1
20260505164052 13 116 3.2 12.9 0.00 0.00 0.00 47 1013.3
20260505163023 13 35 6.4 16.1 0.00 0.00 0.00 47 1013.3
20260505162032 12 42 6.4 16.1 0.00 0.00 0.00 50 1013.4
20260505161025 12 21 9.7 20.9 0.00 0.00 0.00 53 1013.6
20260505153024 12 8 19.3 32.2 0.00 0.00 0.00 57 1014.1
20260505152033 12 351 14.5 29.0 0.00 0.00 0.00 57 1014.1
20260505151024 12 336 16.1 40.2 0.00 0.00 0.00 59 1014.1
20260505125025 14 43 3.2 8.0 0.00 0.00 0.00 43 1013.0
20260505124016 14 160 1.6 8.0 0.00 0.00 0.00 42 1013.2
20260505123041 14 160 1.6 8.0 0.00 0.00 0.00 41 1013.2
20260505122016 14 188 4.8 16.1 0.00 0.00 0.00 40 1013.2
20260505121044 14 317 1.6 8.0 0.00 0.00 0.00 39 1013.2
20260505120037 14 317 3.2 8.0 0.00 0.00 0.00 38 1013.0
20260505115024 14 162 1.6 12.9 0.00 0.00 0.00 38 1013.0
20260505114017 14 253 6.4 20.9 0.00 0.00 0.00 38 1012.8
20260505113024 14 0.0 0.0 0.00 0.00 0.00 37 1012.8
20260505112017 14 0.0 0.0 0.00 0.00 0.00 37 1012.8
20260505111024 14 53 3.2 16.1 0.00 0.00 0.00 36 1013.0
20260505102016 14 152 0.0 4.8 0.00 0.00 0.00 36 1012.9
20260505101025 15 144 0.0 4.8 0.00 0.00 0.00 34 1012.8
20260505100017 15 177 1.6 12.9 0.00 0.00 0.00 34 1012.7
20260505095024 15 0.0 0.0 0.00 0.00 0.00 35 1012.7
20260505094037 15 126 0.0 4.8 0.00 0.00 0.00 33 1012.7
20260505093024 15 7 1.6 12.9 0.00 0.00 0.00 31 1012.7
20260505092017 15 93 1.6 8.0 0.00 0.00 0.00 32 1013.0
20260505091025 15 290 6.4 16.1 0.00 0.00 0.00 31 1012.9
20260505090017 15 272 6.4 20.9 0.00 0.00 0.00 32 1013.0
20260505085025 15 280 6.4 16.1 0.00 0.00 0.00 33 1013.3
20260505084016 15 19 1.6 12.9 0.00 0.00 0.00 33 1013.4
20260505083025 16 146 1.6 8.0 0.00 0.00 0.00 33 1013.6
20260505082036 16 322 1.6 8.0 0.00 0.00 0.00 33 1013.5
20260505081041 16 229 3.2 12.9 0.00 0.00 0.00 33 1013.5
20260505080018 16 327 6.4 20.9 0.00 0.00 0.00 32 1013.6
20260505075024 16 146 1.6 8.0 0.00 0.00 0.00 32 1013.8
20260505074017 16 244 8.0 24.1 0.00 0.00 0.00 31 1013.8
20260505073024 16 332 6.4 24.1 0.00 0.00 0.00 31 1013.6
20260505072016 17 280 9.7 37.0 0.00 0.00 0.00 30 1013.5
20260505071025 17 253 8.0 29.0 0.00 0.00 0.00 30 1013.4
20260505070016 17 232 12.9 40.2 0.00 0.00 0.00 29 1013.2
20260505065025 17 202 9.7 37.0 0.00 0.00 0.00 29 1013.0
20260505064016 17 281 14.5 40.2 0.00 0.00 0.00 28 1013.1
20260505063025 17 206 4.8 16.1 0.00 0.00 0.00 27 1013.0
20260505062017 17 261 8.0 24.1 0.00 0.00 0.00 27 1013.1
20260505061105 18 197 8.0 16.1 0.00 0.00 0.00 26 1013.1
20260505060053 18 221 14.5 64.4 0.00 0.00 0.00 26 1013.0
20260505055024 18 235 8.0 24.1 0.00 0.00 0.00 26 1013.0
20260505054017 18 219 9.7 29.0 0.00 0.00 0.00 25 1012.9
20260505053024 18 168 6.4 24.1 0.00 0.00 0.00 25 1012.9
20260505052016 18 243 4.8 16.1 0.00 0.00 0.00 25 1012.8
20260505051026 18 203 4.8 16.1 0.00 0.00 0.00 25 1012.7
20260505041025 19 189 4.8 16.1 0.00 0.00 0.00 25 1012.6
20260505040017 19 179 1.6 8.0 0.00 0.00 0.00 25 1012.6
20260505035024 20 339 3.2 16.1 0.00 0.00 0.00 24 1012.7
20260505034017 20 215 6.4 20.9 0.00 0.00 0.00 24 1012.5
20260505033026 20 211 1.6 8.0 0.00 0.00 0.00 23 1012.3
20260505032017 20 214 4.8 20.9 0.00 0.00 0.00 23 1012.2
20260505031025 20 241 9.7 37.0 0.00 0.00 0.00 22 1012.0
20260505030016 20 276 9.7 29.0 0.00 0.00 0.00 22 1011.8
20260505025026 21 312 11.3 32.2 0.00 0.00 0.00 21 1011.8
20260505024036 21 270 14.5 40.2 0.00 0.00 0.00 21 1011.7
20260505023045 21 251 17.7 48.3 0.00 0.00 0.00 21 1011.6
20260505022018 21 254 16.1 45.1 0.00 0.00 0.00 20 1011.5
20260505021024 21 267 9.7 29.0 0.00 0.00 0.00 21 1011.4
20260505020018 21 272 6.4 24.1 0.00 0.00 0.00 21 1011.2
20260505015024 22 233 9.7 24.1 0.00 0.00 0.00 21 1011.2
20260505014017 22 226 11.3 32.2 0.00 0.00 0.00 20 1011.1
20260505013040 22 272 14.5 32.2 0.00 0.00 0.00 20 1010.9
20260505012017 22 312 12.9 40.2 0.00 0.00 0.00 20 1010.7
20260505011026 22 248 14.5 48.3 0.00 0.00 0.00 19 1010.8
20260505010016 22 277 14.5 48.3 0.00 0.00 0.00 19 1010.8
20260505005026 22 248 19.3 37.0 0.00 0.00 0.00 18 1010.8
20260505004016 22 269 17.7 56.3 0.00 0.00 0.00 18 1010.9
20260505003025 22 292 14.5 56.3 0.00 0.00 0.00 17 1011.0
20260505002018 22 273 14.5 37.0 0.00 0.00 0.00 17 1011.1
20260505001045 23 264 14.5 37.0 0.00 0.00 0.00 17 1011.2
20260505000017 23 242 14.5 37.0 0.00 0.00 0.00 16 1011.1
20260504235025 23 221 16.1 37.0 0.00 0.00 0.00 16 1011.1
20260504234017 23 274 17.7 45.1 0.00 0.00 0.00 15 1011.2
20260504233026 23 264 12.9 37.0 0.00 0.00 0.00 15 1011.2
20260504232017 23 256 19.3 53.1 0.00 0.00 0.00 15 1011.2
20260504231046 23 284 24.1 53.1 0.00 0.00 0.00 14 1011.1
20260504230016 23 239 16.1 45.1 0.00 0.00 0.00 14 1011.2
20260504225025 23 228 22.5 56.3 0.00 0.00 0.00 14 1011.2
20260504224018 23 265 22.5 53.1 0.00 0.00 0.00 14 1011.3
20260504223025 23 249 20.9 48.3 0.00 0.00 0.00 13 1011.6
20260504222018 24 223 16.1 56.3 0.00 0.00 0.00 12 1011.5
20260504221025 24 243 24.1 53.1 0.00 0.00 0.00 13 1011.7
20260504220018 24 193 19.3 53.1 0.00 0.00 0.00 13 1011.8
20260504215025 24 216 14.5 32.2 0.00 0.00 0.00 13 1012.0
20260504214017 25 226 22.5 64.4 0.00 0.00 0.00 13 1012.2
20260504213046 25 240 12.9 37.0 0.00 0.00 0.00 13 1012.3
20260504212017 24 211 19.3 40.2 0.00 0.00 0.00 16 1012.3
20260504211026 24 241 19.3 45.1 0.00 0.00 0.00 15 1012.6
20260504210037 23 235 19.3 61.2 0.00 0.00 0.00 16 1012.9
20260504205025 24 273 12.9 37.0 0.00 0.00 0.00 17 1013.1
20260504204034 23 215 20.9 53.1 0.00 0.00 0.00 18 1013.4
20260504203025 24 203 14.5 32.2 0.00 0.00 0.00 19 1013.7
20260504202018 23 226 14.5 45.1 0.00 0.00 0.00 18 1014.0
20260504201025 23 231 9.7 29.0 0.00 0.00 0.00 18 1013.9